User: anonymous   Login
Location: Unspecified
(0.0000°N, 0.0000°E)
Time: 18:47:35
(UTC+00:00)
Language:

TIANWANG 1B (TW-1B) - Orbit

View from above orbital plane
View from above orbital plane
View from above satellite
View from above satellite

Ground track
Ground track

The orbit data is extracted from the following two-line orbital elements,

1 40927U 15051C   17145.87758278 +.00008294 +00000-0 +20102-3 0  9995
2 40927 097.2407 185.6404 0009771 259.1489 223.0522 15.41279156093439
Epoch (UTC): 25 May 2017 21:03:43
Eccentricity: 0.0009771
inclination: 97.2407°
perigee height: 435 km
apogee height: 449 km
right ascension of ascending node: 185.6404°
argument of perigee: 259.1489°
revolutions per day: 15.41279156
mean anomaly at epoch: 223.0522°
orbit number at epoch: 9343

The dashed part of the orbit path shows where the satellite is in the earth's shadow,  

DLR